Location: Artiguedieu
(43.5000°N, 0.5454°E)
Time: 13:06:51
(UTC+00:00)

CZ-4B R/B - Pass Details

Date: 06 December 2020
Orbit: 485 x 653 km, 97.9° (Epoch: 27 January)

Event Time Altitude Azimuth Distance (km) Brightness Sun altitude
Rises 05:20:18 0° 11° (NNE) 2,963 6.5 -20.3°
Reaches altitude 10° 05:22:33 10° 11° (N) 2,034 5.7 -19.9°
Maximum altitude 05:27:00 82° 285° (WNW) 631 2.9 -19.1°
Drops below altitude 10° 05:31:13 10° 197° (SSW) 1,933 5.6 -18.4°
Sets 05:33:19 0° 197° (SSW) 2,803 6.4 -18.0°
